Location: Sternwarte_Laufen
(47.9344°N, 12.9346°E)
Time: 09:18:13
(UTC+02:00)

N. Korean satellite - Visible Passes

Search period start: 26 March 2017 00:00
Search period end: 05 April 2017 01:00
Orbit: 461 x 520 km, 97.2° (Epoch: 24 March)

Date Brightness Start Highest point End Pass type
(mag) Time Alt. Az. Time Alt. Az. Time Alt. Az.
26 Mar 8.8 19:58:58 10° SSW 20:02:10 30° W 20:05:21 10° NNW visible
29 Mar 9.7 20:26:00 10° SW 20:28:13 16° W 20:30:26 10° NW visible
30 Mar 9.0 20:02:26 10° SSW 20:05:30 27° W 20:08:33 10° NW visible
02 Apr 9.8 20:29:32 10° SW 20:31:30 14° W 20:33:27 10° WNW visible
